| time (UTC) | temp C | wind direction | speed KPH | gust KPH | rain 1hr cm | rain 24hr cm | rain mn cm | humidity % | barometer mb |
| 20260906181228 | 17 | 311 | 4.8 | 12.9 | 0.00 | 0.00 | 0.00 | 67 | 1017.4 |
| 20260906180735 | 17 | 329 | 3.2 | 14.5 | 0.00 | 0.00 | 0.00 | 68 | 1017.3 |
| 20260906180222 | 18 | 297 | 6.4 | 14.5 | 0.00 | 0.00 | 0.00 | 67 | 1017.2 |
| 20260906175733 | 17 | 292 | 1.6 | 12.9 | 0.00 | 0.00 | 0.00 | 68 | 1017.2 |
| 20260906175221 | 17 | 13 | 1.6 | 12.9 | 0.00 | 0.00 | 0.00 | 69 | 1017.2 |
| 20260906174807 | 17 | 360 | 4.8 | 14.5 | 0.00 | 0.00 | 0.00 | 69 | 1017.2 |
| 20260906174302 | 17 | 327 | 6.4 | 14.5 | 0.00 | 0.00 | 0.00 | 70 | 1017.2 |
| 20260906174230 | 17 | 327 | 6.4 | 14.5 | 0.00 | 0.00 | 0.00 | 70 | 1017.2 |
| 20260906173737 | 17 | 328 | 4.8 | 14.5 | 0.00 | 0.00 | 0.00 | 69 | 1017.2 |
| 20260906173304 | 17 | 310 | 4.8 | 9.7 | 0.00 | 0.00 | 0.00 | 70 | 1017.4 |
| 20260906173232 | 17 | 310 | 4.8 | 9.7 | 0.00 | 0.00 | 0.00 | 70 | 1017.4 |
| 20260906172739 | 17 | 350 | 3.2 | 6.4 | 0.00 | 0.00 | 0.00 | 71 | 1017.5 |
| 20260906172228 | 16 | 226 | 3.2 | 11.3 | 0.00 | 0.00 | 0.00 | 72 | 1017.5 |
| 20260906171733 | 16 | 298 | 3.2 | 11.3 | 0.00 | 0.00 | 0.00 | 71 | 1017.5 |
| 20260906171220 | 16 | 314 | 1.6 | 6.4 | 0.00 | 0.00 | 0.00 | 73 | 1017.5 |
| 20260906170727 | 16 | 311 | 3.2 | 6.4 | 0.00 | 0.00 | 0.00 | 73 | 1017.6 |
| 20260906170234 | 16 | 234 | 1.6 | 6.4 | 0.00 | 0.00 | 0.00 | 74 | 1017.7 |
| 20260906165741 | 16 | 259 | 1.6 | 8.0 | 0.00 | 0.00 | 0.00 | 74 | 1017.8 |
| 20260906165228 | 16 | 261 | 4.8 | 8.0 | 0.00 | 0.00 | 0.00 | 74 | 1017.7 |
| 20260906164756 | 16 | 235 | 3.2 | 8.0 | 0.00 | 0.00 | 0.00 | 73 | 1017.7 |
| 20260906164724 | 16 | 235 | 3.2 | 8.0 | 0.00 | 0.00 | 0.00 | 73 | 1017.7 |
| 20260906164306 | 16 | 248 | 1.6 | 4.8 | 0.00 | 0.00 | 0.00 | 72 | 1017.8 |
| 20260906163725 | 16 | 54 | 1.6 | 4.8 | 0.00 | 0.00 | 0.00 | 71 | 1017.7 |
| 20260906163232 | 16 | 44 | 0.0 | 4.8 | 0.00 | 0.00 | 0.00 | 73 | 1017.6 |
| 20260906162739 | 16 | 66 | 3.2 | 4.8 | 0.00 | 0.00 | 0.00 | 73 | 1017.7 |
| 20260906162227 | 16 | 106 | 1.6 | 4.8 | 0.00 | 0.00 | 0.00 | 74 | 1017.9 |
| 20260906161733 | 15 | 117 | 1.6 | 3.2 | 0.00 | 0.00 | 0.00 | 75 | 1017.7 |
| 20260906161300 | 15 | 57 | 0.0 | 3.2 | 0.00 | 0.00 | 0.00 | 76 | 1017.7 |
| 20260906160735 | 15 | 124 | 1.6 | 3.2 | 0.00 | 0.00 | 0.00 | 76 | 1017.6 |
| 20260906160257 | 14 | 82 | 0.0 | 3.2 | 0.00 | 0.00 | 0.00 | 78 | 1017.6 |
| 20260906155732 | 14 | 92 | 3.2 | 3.2 | 0.00 | 0.00 | 0.00 | 79 | 1017.6 |
| 20260906155240 | 13 | 88 | 0.0 | 3.2 | 0.00 | 0.00 | 0.00 | 80 | 1017.5 |
| 20260906154807 | 13 | 81 | 0.0 | 0.0 | 0.00 | 0.00 | 0.00 | 82 | 1017.4 |
| 20260906154222 | 13 | 81 | 0.0 | 0.0 | 0.00 | 0.00 | 0.00 | 83 | 1017.4 |
| 20260906153728 | 13 | 65 | 0.0 | 0.0 | 0.00 | 0.00 | 0.00 | 85 | 1017.3 |
| 20260906153221 | 12 | 42 | 0.0 | 0.0 | 0.00 | 0.00 | 0.00 | 86 | 1017.3 |
| 20260906152727 | 12 | 42 | 0.0 | 0.0 | 0.00 | 0.00 | 0.00 | 88 | 1017.1 |
| 20260906152235 | 11 | 42 | 0.0 | 0.0 | 0.00 | 0.00 | 0.00 | 91 | 1017.2 |
| 20260906151721 | 11 | 42 | 0.0 | 0.0 | 0.00 | 0.00 | 0.00 | 91 | 1017.1 |
| 20260906151308 | 11 | 61 | 0.0 | 0.0 | 0.00 | 0.00 | 0.00 | 91 | 1017.1 |
| 20260906151236 | 11 | 61 | 0.0 | 0.0 | 0.00 | 0.00 | 0.00 | 91 | 1017.1 |
| 20260906150803 | 10 | 61 | 0.0 | 0.0 | 0.00 | 0.00 | 0.00 | 91 | 1017.2 |
| 20260906150731 | 10 | 61 | 0.0 | 0.0 | 0.00 | 0.00 | 0.00 | 91 | 1017.2 |
| 20260906150258 | 10 | 61 | 0.0 | 0.0 | 0.00 | 0.00 | 0.00 | 92 | 1017.1 |
| 20260906150226 | 10 | 61 | 0.0 | 0.0 | 0.00 | 0.00 | 0.00 | 92 | 1017.1 |
| 20260906145733 | 10 | 61 | 0.0 | 0.0 | 0.00 | 0.00 | 0.00 | 93 | 1017.2 |
| 20260906145301 | 10 | 61 | 0.0 | 0.0 | 0.00 | 0.00 | 0.00 | 95 | 1017.1 |
| 20260906145229 | 10 | 61 | 0.0 | 0.0 | 0.00 | 0.00 | 0.00 | 95 | 1017.1 |
| 20260906144755 | 10 | 61 | 0.0 | 0.0 | 0.00 | 0.00 | 0.00 | 95 | 1017.0 |
| 20260906144723 | 10 | 61 | 0.0 | 0.0 | 0.00 | 0.00 | 0.00 | 95 | 1017.0 |
| 20260906144230 | 9 | 61 | 0.0 | 0.0 | 0.00 | 0.00 | 0.00 | 95 | 1016.9 |
| 20260906143737 | 8 | 61 | 0.0 | 0.0 | 0.00 | 0.00 | 0.00 | 95 | 1017.0 |
| 20260906143224 | 8 | 61 | 0.0 | 0.0 | 0.00 | 0.00 | 0.00 | 95 | 1017.1 |
| 20260906142811 | 8 | 61 | 0.0 | 0.0 | 0.00 | 0.00 | 0.00 | 95 | 1017.1 |
| 20260906142739 | 8 | 61 | 0.0 | 0.0 | 0.00 | 0.00 | 0.00 | 95 | 1017.1 |
| 20260906142227 | 8 | 61 | 0.0 | 0.0 | 0.00 | 0.00 | 0.00 | 94 | 1017.0 |
| 20260906141733 | 8 | 61 | 0.0 | 0.0 | 0.00 | 0.00 | 0.00 | 94 | 1017.0 |
| 20260906141301 | 8 | 61 | 0.0 | 0.0 | 0.00 | 0.00 | 0.00 | 94 | 1017.0 |
| 20260906140720 | 8 | 61 | 0.0 | 0.0 | 0.00 | 0.00 | 0.00 | 94 | 1017.0 |
| 20260906140227 | 8 | 61 | 0.0 | 0.0 | 0.00 | 0.00 | 0.00 | 94 | 1017.1 |
| 20260906135754 | 8 | 61 | 0.0 | 0.0 | 0.00 | 0.00 | 0.00 | 94 | 1017.0 |
| 20260906135722 | 8 | 61 | 0.0 | 0.0 | 0.00 | 0.00 | 0.00 | 94 | 1017.0 |
| 20260906135230 | 8 | 61 | 0.0 | 0.0 | 0.00 | 0.00 | 0.00 | 94 | 1017.0 |
| 20260906134736 | 8 | 61 | 0.0 | 0.0 | 0.00 | 0.00 | 0.00 | 94 | 1017.0 |
| 20260906134223 | 8 | 61 | 0.0 | 0.0 | 0.00 | 0.00 | 0.00 | 93 | 1017.0 |
| 20260906133730 | 8 | 61 | 0.0 | 0.0 | 0.00 | 0.00 | 0.00 | 93 | 1016.9 |
| 20260906133237 | 8 | 61 | 0.0 | 0.0 | 0.00 | 0.00 | 0.00 | 93 | 1017.0 |
| 20260906132724 | 8 | 61 | 0.0 | 0.0 | 0.00 | 0.00 | 0.00 | 93 | 1017.0 |
| 20260906132232 | 8 | 64 | 0.0 | 0.0 | 0.00 | 0.00 | 0.00 | 93 | 1017.1 |
| 20260906131738 | 8 | 64 | 0.0 | 0.0 | 0.00 | 0.00 | 0.00 | 93 | 1017.0 |
| 20260906131229 | 8 | 64 | 0.0 | 0.0 | 0.00 | 0.00 | 0.00 | 94 | 1017.0 |
| 20260906130736 | 8 | 64 | 0.0 | 0.0 | 0.00 | 0.00 | 0.00 | 94 | 1017.1 |
| 20260906130303 | 8 | 64 | 0.0 | 0.0 | 0.00 | 0.00 | 0.00 | 94 | 1017.1 |
| 20260906125759 | 8 | 58 | 0.0 | 0.0 | 0.00 | 0.00 | 0.00 | 94 | 1017.2 |
| 20260906125235 | 8 | 58 | 0.0 | 0.0 | 0.00 | 0.00 | 0.00 | 94 | 1017.1 |
| 20260906124721 | 8 | 58 | 0.0 | 0.0 | 0.00 | 0.00 | 0.00 | 94 | 1017.1 |
| 20260906124228 | 8 | 59 | 0.0 | 0.0 | 0.00 | 0.00 | 0.00 | 94 | 1017.1 |
| 20260906123735 | 8 | 59 | 0.0 | 0.0 | 0.00 | 0.00 | 0.00 | 94 | 1017.2 |
| 20260906123301 | 8 | 68 | 0.0 | 0.0 | 0.00 | 0.00 | 0.00 | 94 | 1017.2 |
| 20260906123229 | 8 | 68 | 0.0 | 0.0 | 0.00 | 0.00 | 0.00 | 94 | 1017.2 |
| 20260906122737 | 8 | 68 | 0.0 | 0.0 | 0.00 | 0.00 | 0.00 | 94 | 1017.2 |
| 20260906122306 | 8 | 68 | 0.0 | 0.0 | 0.00 | 0.00 | 0.00 | 94 | 1017.1 |
| 20260906122233 | 8 | 68 | 0.0 | 0.0 | 0.00 | 0.00 | 0.00 | 94 | 1017.1 |
| 20260906121738 | 8 | 68 | 0.0 | 0.0 | 0.00 | 0.00 | 0.00 | 94 | 1017.1 |
| 20260906121305 | 8 | 79 | 0.0 | 0.0 | 0.00 | 0.00 | 0.00 | 94 | 1017.1 |
| 20260906121233 | 8 | 79 | 0.0 | 0.0 | 0.00 | 0.00 | 0.00 | 94 | 1017.1 |
| 20260906120801 | 8 | 78 | 0.0 | 0.0 | 0.00 | 0.00 | 0.00 | 94 | 1017.1 |
| 20260906120235 | 8 | 74 | 0.0 | 0.0 | 0.00 | 0.00 | 0.00 | 93 | 1017.1 |
| 20260906115722 | 8 | 74 | 0.0 | 0.0 | 0.00 | 0.00 | 0.00 | 93 | 1017.0 |
| 20260906115230 | 8 | 74 | 0.0 | 0.0 | 0.00 | 0.00 | 0.00 | 93 | 1017.0 |
| 20260906114236 | 8 | 74 | 0.0 | 0.0 | 0.00 | 0.00 | 0.00 | 93 | 1017.0 |
| 20260906113723 | 8 | 74 | 0.0 | 0.0 | 0.00 | 0.00 | 0.00 | 93 | 1017.0 |
| 20260906113230 | 9 | 74 | 0.0 | 0.0 | 0.00 | 0.00 | 0.00 | 93 | 1017.3 |
| 20260906112758 | 9 | 74 | 0.0 | 0.0 | 0.00 | 0.00 | 0.00 | 93 | 1017.3 |
| 20260906112234 | 9 | 74 | 0.0 | 0.0 | 0.00 | 0.00 | 0.00 | 94 | 1017.3 |
| 20260906111720 | 9 | 74 | 0.0 | 0.0 | 0.00 | 0.00 | 0.00 | 94 | 1017.2 |
| 20260906111227 | 9 | 74 | 0.0 | 0.0 | 0.00 | 0.00 | 0.00 | 94 | 1017.2 |
| 20260906110734 | 9 | 52 | 0.0 | 0.0 | 0.00 | 0.00 | 0.00 | 94 | 1017.3 |
| 20260906110301 | 9 | 52 | 0.0 | 0.0 | 0.00 | 0.00 | 0.00 | 93 | 1017.3 |
| 20260906105739 | 9 | 52 | 0.0 | 0.0 | 0.00 | 0.00 | 0.00 | 93 | 1017.2 |
| 20260906105226 | 9 | 52 | 0.0 | 0.0 | 0.00 | 0.00 | 0.00 | 93 | 1017.2 |
| 20260906104732 | 9 | 52 | 0.0 | 0.0 | 0.00 | 0.00 | 0.00 | 93 | 1017.1 |
| 20260906104300 | 9 | 52 | 0.0 | 0.0 | 0.00 | 0.00 | 0.00 | 93 | 1017.1 |
| 20260906103739 | 9 | 53 | 0.0 | 0.0 | 0.00 | 0.00 | 0.00 | 93 | 1017.2 |
| 20260906103307 | 9 | 53 | 0.0 | 0.0 | 0.00 | 0.00 | 0.00 | 93 | 1017.2 |
| 20260906102722 | 9 | 53 | 0.0 | 0.0 | 0.00 | 0.00 | 0.00 | 93 | 1017.2 |
| 20260906102310 | 9 | 57 | 0.0 | 0.0 | 0.00 | 0.00 | 0.00 | 93 | 1017.3 |
| 20260906101724 | 9 | 57 | 0.0 | 0.0 | 0.00 | 0.00 | 0.00 | 93 | 1017.2 |
| 20260906101231 | 9 | 57 | 0.0 | 0.0 | 0.00 | 0.00 | 0.00 | 93 | 1017.2 |
| 20260906100738 | 9 | 33 | 0.0 | 0.0 | 0.00 | 0.00 | 0.00 | 93 | 1017.2 |
| 20260906100225 | 9 | 33 | 0.0 | 0.0 | 0.00 | 0.00 | 0.00 | 93 | 1017.3 |
| 20260906095732 | 9 | 33 | 0.0 | 0.0 | 0.00 | 0.00 | 0.00 | 93 | 1017.3 |
| 20260906095240 | 9 | 90 | 0.0 | 0.0 | 0.00 | 0.00 | 0.00 | 93 | 1017.3 |
| 20260906094726 | 9 | 90 | 0.0 | 0.0 | 0.00 | 0.00 | 0.00 | 93 | 1017.3 |
| 20260906094254 | 10 | 90 | 0.0 | 0.0 | 0.00 | 0.00 | 0.00 | 93 | 1017.2 |
| 20260906093729 | 10 | 91 | 0.0 | 0.0 | 0.00 | 0.00 | 0.00 | 93 | 1017.1 |
| 20260906093239 | 10 | 90 | 0.0 | 0.0 | 0.00 | 0.00 | 0.00 | 92 | 1017.2 |
| 20260906092726 | 10 | 90 | 0.0 | 0.0 | 0.00 | 0.00 | 0.00 | 92 | 1017.2 |
| 20260906092235 | 10 | 90 | 0.0 | 0.0 | 0.00 | 0.00 | 0.00 | 92 | 1017.1 |
| 20260906091740 | 10 | 90 | 0.0 | 0.0 | 0.00 | 0.00 | 0.00 | 93 | 1017.1 |
| 20260906091222 | 10 | 90 | 0.0 | 0.0 | 0.00 | 0.00 | 0.00 | 93 | 1017.1 |
| 20260906090729 | 10 | 90 | 0.0 | 0.0 | 0.00 | 0.00 | 0.00 | 93 | 1017.1 |
| 20260906090236 | 10 | 90 | 0.0 | 0.0 | 0.00 | 0.00 | 0.00 | 93 | 1017.2 |
| 20260906085722 | 10 | 90 | 0.0 | 0.0 | 0.00 | 0.00 | 0.00 | 93 | 1017.1 |
| 20260906085230 | 10 | 90 | 0.0 | 0.0 | 0.00 | 0.00 | 0.00 | 93 | 1017.2 |
| 20260906084736 | 10 | 90 | 0.0 | 0.0 | 0.00 | 0.00 | 0.00 | 92 | 1017.2 |
| 20260906084226 | 10 | 90 | 0.0 | 0.0 | 0.00 | 0.00 | 0.00 | 92 | 1017.1 |
| 20260906083733 | 10 | 90 | 0.0 | 0.0 | 0.00 | 0.00 | 0.00 | 93 | 1017.2 |
| 20260906083300 | 10 | 90 | 0.0 | 0.0 | 0.00 | 0.00 | 0.00 | 92 | 1017.3 |
| 20260906082735 | 10 | 90 | 0.0 | 0.0 | 0.00 | 0.00 | 0.00 | 92 | 1017.3 |
| 20260906082223 | 10 | 90 | 0.0 | 0.0 | 0.00 | 0.00 | 0.00 | 92 | 1017.4 |
| 20260906081729 | 10 | 90 | 0.0 | 0.0 | 0.00 | 0.00 | 0.00 | 92 | 1017.3 |
| 20260906081236 | 10 | 90 | 0.0 | 0.0 | 0.00 | 0.00 | 0.00 | 92 | 1017.3 |
| 20260906080723 | 10 | 90 | 0.0 | 0.0 | 0.00 | 0.00 | 0.00 | 92 | 1017.3 |
| 20260906080310 | 10 | 90 | 0.0 | 0.0 | 0.00 | 0.00 | 0.00 | 92 | 1017.2 |
| 20260906075724 | 10 | 90 | 0.0 | 0.0 | 0.00 | 0.00 | 0.00 | 92 | 1017.2 |
| 20260906075312 | 10 | 90 | 0.0 | 0.0 | 0.00 | 0.00 | 0.00 | 92 | 1017.2 |
| 20260906074726 | 10 | 90 | 0.0 | 0.0 | 0.00 | 0.00 | 0.00 | 92 | 1017.3 |
| 20260906074233 | 10 | 90 | 0.0 | 0.0 | 0.00 | 0.00 | 0.00 | 92 | 1017.4 |
| 20260906073745 | 10 | 90 | 0.0 | 0.0 | 0.00 | 0.00 | 0.00 | 92 | 1017.3 |
| 20260906073307 | 10 | 90 | 0.0 | 0.0 | 0.00 | 0.00 | 0.00 | 92 | 1017.3 |
| 20260906072722 | 11 | 90 | 0.0 | 0.0 | 0.00 | 0.00 | 0.00 | 91 | 1017.3 |
| 20260906072310 | 11 | 90 | 0.0 | 0.0 | 0.00 | 0.00 | 0.00 | 91 | 1017.5 |
| 20260906072238 | 11 | 90 | 0.0 | 0.0 | 0.00 | 0.00 | 0.00 | 91 | 1017.5 |
| 20260906071724 | 11 | 90 | 0.0 | 0.0 | 0.00 | 0.00 | 0.00 | 91 | 1017.6 |
| 20260906071311 | 11 | 90 | 0.0 | 0.0 | 0.00 | 0.00 | 0.00 | 91 | 1017.5 |
| 20260906071239 | 11 | 90 | 0.0 | 0.0 | 0.00 | 0.00 | 0.00 | 91 | 1017.5 |
| 20260906070806 | 11 | 90 | 0.0 | 0.0 | 0.00 | 0.00 | 0.00 | 91 | 1017.5 |
| 20260906070734 | 11 | 90 | 0.0 | 0.0 | 0.00 | 0.00 | 0.00 | 91 | 1017.5 |
| 20260906070221 | 11 | 90 | 0.0 | 0.0 | 0.00 | 0.00 | 0.00 | 91 | 1017.6 |
| 20260906065728 | 11 | 90 | 0.0 | 0.0 | 0.00 | 0.00 | 0.00 | 91 | 1017.7 |
| 20260906065236 | 11 | 90 | 0.0 | 0.0 | 0.00 | 0.00 | 0.00 | 91 | 1017.7 |
| 20260906064722 | 11 | 90 | 0.0 | 0.0 | 0.00 | 0.00 | 0.00 | 91 | 1017.7 |
| 20260906064309 | 11 | 90 | 0.0 | 0.0 | 0.00 | 0.00 | 0.00 | 91 | 1017.5 |
| 20260906064237 | 11 | 90 | 0.0 | 0.0 | 0.00 | 0.00 | 0.00 | 91 | 1017.5 |
| 20260906063724 | 11 | 90 | 0.0 | 0.0 | 0.00 | 0.00 | 0.00 | 91 | 1017.7 |
| 20260906063231 | 11 | 90 | 0.0 | 0.0 | 0.00 | 0.00 | 0.00 | 90 | 1017.6 |
| 20260906062738 | 11 | 90 | 0.0 | 0.0 | 0.00 | 0.00 | 0.00 | 89 | 1017.6 |
| 20260906062230 | 11 | 90 | 0.0 | 0.0 | 0.00 | 0.00 | 0.00 | 89 | 1017.7 |
| 20260906061757 | 11 | 90 | 0.0 | 0.0 | 0.00 | 0.00 | 0.00 | 89 | 1017.6 |
| 20260906061232 | 11 | 90 | 0.0 | 0.0 | 0.00 | 0.00 | 0.00 | 89 | 1017.6 |
| 20260906060738 | 11 | 90 | 0.0 | 0.0 | 0.00 | 0.00 | 0.00 | 89 | 1017.7 |
| 20260906060225 | 11 | 59 | 0.0 | 0.0 | 0.00 | 0.00 | 0.00 | 89 | 1017.7 |
| 20260906055732 | 11 | 59 | 0.0 | 0.0 | 0.00 | 0.00 | 0.00 | 88 | 1017.6 |
| 20260906055240 | 12 | 59 | 0.0 | 0.0 | 0.00 | 0.00 | 0.00 | 88 | 1017.5 |
| 20260906054726 | 12 | 59 | 0.0 | 0.0 | 0.00 | 0.00 | 0.00 | 88 | 1017.7 |
| 20260906054233 | 12 | 59 | 0.0 | 0.0 | 0.00 | 0.00 | 0.00 | 87 | 1017.7 |
| 20260906053720 | 12 | 284 | 0.0 | 0.0 | 0.00 | 0.00 | 0.00 | 87 | 1017.7 |
| 20260906053227 | 12 | 284 | 0.0 | 0.0 | 0.00 | 0.00 | 0.00 | 87 | 1017.7 |
| 20260906052754 | 12 | 284 | 0.0 | 0.0 | 0.00 | 0.00 | 0.00 | 87 | 1017.8 |
| 20260906052234 | 12 | 284 | 0.0 | 0.0 | 0.00 | 0.00 | 0.00 | 88 | 1017.7 |
| 20260906051720 | 12 | 283 | 0.0 | 0.0 | 0.00 | 0.00 | 0.00 | 87 | 1017.9 |
| 20260906051307 | 12 | 284 | 0.0 | 0.0 | 0.00 | 0.00 | 0.00 | 87 | 1017.9 |
| 20260906050722 | 12 | 284 | 0.0 | 0.0 | 0.00 | 0.00 | 0.00 | 86 | 1018.0 |
| 20260906050229 | 12 | 284 | 0.0 | 0.0 | 0.00 | 0.00 | 0.00 | 86 | 1017.9 |
| 20260906045737 | 12 | 284 | 0.0 | 0.0 | 0.00 | 0.00 | 0.00 | 85 | 1018.0 |
| 20260906045224 | 13 | 284 | 0.0 | 0.0 | 0.00 | 0.00 | 0.00 | 85 | 1018.0 |
| 20260906044730 | 13 | 284 | 0.0 | 0.0 | 0.00 | 0.00 | 0.00 | 84 | 1018.0 |
| 20260906044237 | 13 | 284 | 0.0 | 0.0 | 0.00 | 0.00 | 0.00 | 84 | 1018.1 |
| 20260906043724 | 13 | 284 | 0.0 | 0.0 | 0.00 | 0.00 | 0.00 | 84 | 1018.0 |
| 20260906043232 | 13 | 283 | 0.0 | 0.0 | 0.00 | 0.00 | 0.00 | 83 | 1018.0 |
| 20260906042722 | 13 | 283 | 0.0 | 0.0 | 0.00 | 0.00 | 0.00 | 83 | 1018.1 |
| 20260906042230 | 13 | 284 | 0.0 | 0.0 | 0.00 | 0.00 | 0.00 | 82 | 1018.1 |
| 20260906041737 | 13 | 284 | 0.0 | 0.0 | 0.00 | 0.00 | 0.00 | 82 | 1018.1 |
| 20260906041223 | 13 | 284 | 0.0 | 0.0 | 0.00 | 0.00 | 0.00 | 81 | 1018.2 |
| 20260906040810 | 14 | 284 | 0.0 | 0.0 | 0.00 | 0.00 | 0.00 | 81 | 1018.2 |
| 20260906040738 | 14 | 284 | 0.0 | 0.0 | 0.00 | 0.00 | 0.00 | 81 | 1018.2 |
| 20260906040305 | 14 | 284 | 0.0 | 0.0 | 0.00 | 0.00 | 0.00 | 81 | 1018.2 |
| 20260906040234 | 14 | 284 | 0.0 | 0.0 | 0.00 | 0.00 | 0.00 | 81 | 1018.2 |
| 20260906035720 | 14 | 284 | 0.0 | 0.0 | 0.00 | 0.00 | 0.00 | 80 | 1018.2 |
| 20260906035228 | 14 | 284 | 0.0 | 0.0 | 0.00 | 0.00 | 0.00 | 80 | 1018.3 |
| 20260906034733 | 14 | 284 | 0.0 | 0.0 | 0.00 | 0.00 | 0.00 | 79 | 1018.2 |
| 20260906034220 | 15 | 284 | 0.0 | 0.0 | 0.00 | 0.00 | 0.00 | 78 | 1018.2 |
| 20260906033727 | 15 | 284 | 0.0 | 0.0 | 0.00 | 0.00 | 0.00 | 77 | 1018.1 |
| 20260906033254 | 15 | 284 | 0.0 | 0.0 | 0.00 | 0.00 | 0.00 | 77 | 1018.0 |
| 20260906033222 | 15 | 284 | 0.0 | 0.0 | 0.00 | 0.00 | 0.00 | 77 | 1018.0 |
| 20260906032729 | 15 | 284 | 0.0 | 0.0 | 0.00 | 0.00 | 0.00 | 76 | 1018.0 |
| 20260906032240 | 15 | 284 | 0.0 | 0.0 | 0.00 | 0.00 | 0.00 | 76 | 1018.0 |
| 20260906031726 | 15 | 284 | 0.0 | 0.0 | 0.00 | 0.00 | 0.00 | 76 | 1017.9 |
| 20260906031233 | 16 | 284 | 0.0 | 0.0 | 0.00 | 0.00 | 0.00 | 75 | 1017.7 |
| 20260906030800 | 16 | 284 | 0.0 | 0.0 | 0.00 | 0.00 | 0.00 | 74 | 1017.7 |
| 20260906030728 | 16 | 284 | 0.0 | 0.0 | 0.00 | 0.00 | 0.00 | 74 | 1017.7 |
| 20260906030235 | 16 | 284 | 0.0 | 0.0 | 0.00 | 0.00 | 0.00 | 73 | 1017.6 |
| 20260906025722 | 16 | 284 | 0.0 | 0.0 | 0.00 | 0.00 | 0.00 | 72 | 1017.6 |
| 20260906025230 | 16 | 283 | 0.0 | 0.0 | 0.00 | 0.00 | 0.00 | 70 | 1017.7 |
| 20260906024303 | 17 | 284 | 0.0 | 0.0 | 0.00 | 0.00 | 0.00 | 70 | 1017.7 |
| 20260906023740 | 17 | 284 | 0.0 | 0.0 | 0.00 | 0.00 | 0.00 | 69 | 1017.8 |
| 20260906023221 | 17 | 284 | 0.0 | 0.0 | 0.00 | 0.00 | 0.00 | 67 | 1017.8 |
| 20260906022809 | 17 | 284 | 0.0 | 0.0 | 0.00 | 0.00 | 0.00 | 66 | 1017.7 |
| 20260906022225 | 17 | 284 | 0.0 | 0.0 | 0.00 | 0.00 | 0.00 | 66 | 1017.6 |
| 20260906021735 | 17 | 284 | 0.0 | 0.0 | 0.00 | 0.00 | 0.00 | 65 | 1017.5 |
| 20260906021302 | 18 | 284 | 0.0 | 0.0 | 0.00 | 0.00 | 0.00 | 65 | 1017.6 |
| 20260906021230 | 18 | 284 | 0.0 | 0.0 | 0.00 | 0.00 | 0.00 | 65 | 1017.6 |
| 20260906020732 | 18 | 284 | 0.0 | 0.0 | 0.00 | 0.00 | 0.00 | 62 | 1017.7 |
| 20260906020259 | 18 | 277 | 0.0 | 0.0 | 0.00 | 0.00 | 0.00 | 63 | 1017.7 |
| 20260906020227 | 18 | 277 | 0.0 | 0.0 | 0.00 | 0.00 | 0.00 | 63 | 1017.7 |
| 20260906015734 | 18 | 277 | 0.0 | 0.0 | 0.00 | 0.00 | 0.00 | 61 | 1017.6 |
| 20260906015240 | 18 | 277 | 0.0 | 0.0 | 0.00 | 0.00 | 0.00 | 60 | 1017.7 |
| 20260906014726 | 19 | 277 | 0.0 | 3.2 | 0.00 | 0.00 | 0.00 | 59 | 1017.7 |
| 20260906014233 | 19 | 277 | 1.6 | 3.2 | 0.00 | 0.00 | 0.00 | 58 | 1017.8 |
| 20260906013800 | 20 | 277 | 0.0 | 0.0 | 0.00 | 0.00 | 0.00 | 56 | 1017.8 |
| 20260906013728 | 20 | 277 | 0.0 | 0.0 | 0.00 | 0.00 | 0.00 | 56 | 1017.8 |
| 20260906013235 | 20 | 277 | 0.0 | 1.6 | 0.00 | 0.00 | 0.00 | 57 | 1017.6 |
| 20260906012722 | 20 | 277 | 0.0 | 1.6 | 0.00 | 0.00 | 0.00 | 57 | 1017.7 |
| 20260906012231 | 20 | 277 | 1.6 | 3.2 | 0.00 | 0.00 | 0.00 | 55 | 1017.7 |
| 20260906011757 | 20 | 287 | 0.0 | 3.2 | 0.00 | 0.00 | 0.00 | 55 | 1017.6 |
| 20260906011725 | 20 | 287 | 0.0 | 3.2 | 0.00 | 0.00 | 0.00 | 55 | 1017.6 |
| 20260906011252 | 21 | 234 | 0.0 | 3.2 | 0.00 | 0.00 | 0.00 | 54 | 1017.5 |
| 20260906010728 | 21 | 232 | 0.0 | 3.2 | 0.00 | 0.00 | 0.00 | 51 | 1017.5 |
| 20260906010235 | 21 | 202 | 1.6 | 3.2 | 0.00 | 0.00 | 0.00 | 51 | 1017.5 |
| 20260906005726 | 21 | 239 | 0.0 | 3.2 | 0.00 | 0.00 | 0.00 | 53 | 1017.5 |
| 20260906005254 | 21 | 242 | 1.6 | 3.2 | 0.00 | 0.00 | 0.00 | 52 | 1017.5 |
| 20260906004728 | 21 | 333 | 1.6 | 4.8 | 0.00 | 0.00 | 0.00 | 53 | 1017.5 |
| 20260906004235 | 21 | 300 | 0.0 | 4.8 | 0.00 | 0.00 | 0.00 | 53 | 1017.5 |
| 20260906003802 | 20 | 26 | 1.6 | 3.2 | 0.00 | 0.00 | 0.00 | 54 | 1017.6 |
| 20260906003730 | 20 | 26 | 1.6 | 3.2 | 0.00 | 0.00 | 0.00 | 54 | 1017.6 |
| 20260906003237 | 20 | 317 | 1.6 | 3.2 | 0.00 | 0.00 | 0.00 | 56 | 1017.5 |
| 20260906002724 | 20 | 217 | 0.0 | 3.2 | 0.00 | 0.00 | 0.00 | 57 | 1017.5 |
| 20260906002232 | 20 | 264 | 0.0 | 3.2 | 0.00 | 0.00 | 0.00 | 56 | 1017.5 |
| 20260906001738 | 20 | 263 | 0.0 | 4.8 | 0.00 | 0.00 | 0.00 | 56 | 1017.4 |
| 20260906001225 | 20 | 355 | 1.6 | 4.8 | 0.00 | 0.00 | 0.00 | 57 | 1017.5 |
| 20260906000732 | 20 | 172 | 1.6 | 4.8 | 0.00 | 0.00 | 0.00 | 56 | 1017.4 |
| 20260906000256 | 20 | 99 | 1.6 | 4.8 | 0.00 | 0.00 | 0.00 | 56 | 1017.6 |
| 20260906000222 | 20 | 99 | 1.6 | 4.8 | 0.00 | 0.00 | 0.00 | 56 | 1017.6 |
| 20260905235729 | 20 | 106 | 0.0 | 3.2 | 0.00 | 0.00 | 0.00 | 57 | 1017.6 |
| 20260905235221 | 20 | 106 | 1.6 | 3.2 | 0.00 | 0.00 | 0.00 | 55 | 1017.6 |
| 20260905234807 | 20 | 348 | 0.0 | 3.2 | 0.00 | 0.00 | 0.00 | 57 | 1017.7 |
| 20260905234222 | 20 | 81 | 0.0 | 3.2 | 0.00 | 0.00 | 0.00 | 57 | 1017.7 |
| 20260905233809 | 20 | 55 | 1.6 | 3.2 | 0.00 | 0.00 | 0.00 | 57 | 1017.7 |
| 20260905233305 | 20 | 149 | 1.6 | 3.2 | 0.00 | 0.00 | 0.00 | 55 | 1017.8 |
| 20260905232720 | 20 | 164 | 0.0 | 3.2 | 0.00 | 0.00 | 0.00 | 55 | 1017.7 |
| 20260905232228 | 20 | 196 | 1.6 | 4.8 | 0.00 | 0.00 | 0.00 | 55 | 1017.7 |
| 20260905231754 | 20 | 202 | 1.6 | 4.8 | 0.00 | 0.03 | 0.00 | 55 | 1017.6 |
| 20260905231230 | 20 | 173 | 1.6 | 4.8 | 0.00 | 0.03 | 0.00 | 55 | 1017.7 |
| 20260905230737 | 20 | 310 | 1.6 | 4.8 | 0.00 | 0.03 | 0.00 | 53 | 1017.8 |
| 20260905230224 | 20 | 93 | 1.6 | 8.0 | 0.00 | 0.03 | 0.00 | 53 | 1018.0 |
| 20260905225731 | 20 | 93 | 3.2 | 8.0 | 0.00 | 0.03 | 0.00 | 54 | 1017.9 |
| 20260905225240 | 20 | 330 | 3.2 | 8.0 | 0.00 | 0.03 | 0.00 | 54 | 1017.9 |
| 20260905224725 | 19 | 70 | 1.6 | 4.8 | 0.00 | 0.03 | 0.00 | 55 | 1018.0 |
| 20260905224236 | 19 | 131 | 1.6 | 4.8 | 0.00 | 0.03 | 0.00 | 57 | 1018.1 |
| 20260905223723 | 19 | 140 | 0.0 | 4.8 | 0.00 | 0.03 | 0.00 | 58 | 1018.1 |
| 20260905223311 | 18 | 95 | 1.6 | 6.4 | 0.00 | 0.03 | 0.00 | 59 | 1018.0 |
| 20260905223239 | 18 | 95 | 1.6 | 6.4 | 0.00 | 0.03 | 0.00 | 59 | 1018.0 |
| 20260905222726 | 18 | 84 | 1.6 | 6.4 | 0.00 | 0.03 | 0.00 | 60 | 1018.1 |
| 20260905222234 | 18 | 38 | 1.6 | 6.4 | 0.00 | 0.03 | 0.00 | 60 | 1018.2 |
| 20260905221800 | 18 | 80 | 3.2 | 6.4 | 0.00 | 0.03 | 0.00 | 62 | 1018.2 |
| 20260905221235 | 18 | 53 | 4.8 | 6.4 | 0.00 | 0.03 | 0.00 | 61 | 1018.3 |
| 20260905220722 | 17 | 63 | 1.6 | 3.2 | 0.00 | 0.03 | 0.00 | 64 | 1018.4 |
| 20260905220229 | 17 | 167 | 0.0 | 3.2 | 0.00 | 0.03 | 0.00 | 64 | 1018.5 |
| 20260905215736 | 17 | 191 | 0.0 | 3.2 | 0.00 | 0.03 | 0.00 | 66 | 1018.7 |
| 20260905215224 | 17 | 96 | 1.6 | 3.2 | 0.00 | 0.03 | 0.00 | 65 | 1018.7 |
| 20260905214730 | 17 | 18 | 0.0 | 3.2 | 0.00 | 0.03 | 0.00 | 66 | 1018.7 |
| 20260905214221 | 17 | 119 | 1.6 | 4.8 | 0.00 | 0.03 | 0.00 | 67 | 1018.7 |
| 20260905213728 | 17 | 130 | 1.6 | 4.8 | 0.00 | 0.03 | 0.00 | 66 | 1018.7 |
| 20260905213234 | 16 | 113 | 1.6 | 4.8 | 0.00 | 0.03 | 0.00 | 67 | 1018.7 |
| 20260905212721 | 16 | 105 | 1.6 | 4.8 | 0.00 | 0.03 | 0.00 | 66 | 1018.7 |
| 20260905212229 | 16 | 124 | 1.6 | 6.4 | 0.00 | 0.03 | 0.00 | 68 | 1018.6 |
| 20260905211735 | 16 | 203 | 0.0 | 6.4 | 0.00 | 0.03 | 0.00 | 69 | 1018.7 |
| 20260905211222 | 16 | 93 | 3.2 | 6.4 | 0.00 | 0.03 | 0.00 | 69 | 1018.6 |
| 20260905210809 | 16 | 72 | 1.6 | 4.8 | 0.00 | 0.03 | 0.00 | 70 | 1018.6 |
| 20260905210224 | 16 | 104 | 1.6 | 4.8 | 0.00 | 0.03 | 0.00 | 71 | 1018.7 |
| 20260905205731 | 16 | 100 | 1.6 | 4.8 | 0.00 | 0.03 | 0.00 | 71 | 1018.8 |
| 20260905205222 | 16 | 94 | 3.2 | 4.8 | 0.00 | 0.03 | 0.00 | 72 | 1018.8 |
| 20260905204728 | 16 | 67 | 1.6 | 3.2 | 0.00 | 0.03 | 0.00 | 72 | 1018.8 |
| 20260905204235 | 16 | 95 | 1.6 | 3.2 | 0.00 | 0.03 | 0.00 | 73 | 1018.8 |
| 20260905203802 | 16 | 107 | 1.6 | 3.2 | 0.00 | 0.03 | 0.00 | 73 | 1018.8 |
| 20260905203237 | 16 | 67 | 1.6 | 4.8 | 0.00 | 0.03 | 0.00 | 74 | 1018.8 |
| 20260905202724 | 16 | 92 | 1.6 | 6.4 | 0.00 | 0.03 | 0.00 | 74 | 1018.8 |
| 20260905202313 | 16 | 88 | 1.6 | 6.4 | 0.00 | 0.03 | 0.00 | 74 | 1018.9 |
| 20260905202241 | 16 | 88 | 1.6 | 6.4 | 0.00 | 0.03 | 0.00 | 74 | 1018.9 |
| 20260905201807 | 15 | 74 | 1.6 | 6.4 | 0.00 | 0.03 | 0.00 | 74 | 1018.9 |
| 20260905201222 | 15 | 68 | 1.6 | 6.4 | 0.00 | 0.03 | 0.00 | 73 | 1018.9 |
| 20260905200808 | 15 | 103 | 3.2 | 6.4 | 0.00 | 0.03 | 0.00 | 73 | 1019.0 |
| 20260905200736 | 15 | 103 | 3.2 | 6.4 | 0.00 | 0.03 | 0.00 | 73 | 1019.0 |
| 20260905200223 | 16 | 126 | 4.8 | 6.4 | 0.00 | 0.03 | 0.00 | 73 | 1019.0 |
| 20260905195730 | 16 | 65 | 1.6 | 3.2 | 0.00 | 0.03 | 0.00 | 73 | 1019.0 |
| 20260905195238 | 16 | 65 | 1.6 | 3.2 | 0.00 | 0.03 | 0.00 | 73 | 1019.0 |
| 20260905194724 | 16 | 119 | 1.6 | 3.2 | 0.00 | 0.03 | 0.00 | 72 | 1019.0 |
| 20260905194230 | 16 | 88 | 0.0 | 4.8 | 0.00 | 0.03 | 0.00 | 71 | 1019.0 |
| 20260905193736 | 16 | 79 | 3.2 | 4.8 | 0.00 | 0.03 | 0.00 | 70 | 1019.1 |
| 20260905193223 | 16 | 70 | 1.6 | 3.2 | 0.00 | 0.03 | 0.00 | 69 | 1019.0 |
| 20260905192730 | 16 | 108 | 1.6 | 3.2 | 0.00 | 0.03 | 0.00 | 68 | 1019.2 |
| 20260905192258 | 16 | 76 | 0.0 | 3.2 | 0.00 | 0.03 | 0.00 | 70 | 1019.2 |
| 20260905192226 | 16 | 76 | 0.0 | 3.2 | 0.00 | 0.03 | 0.00 | 70 | 1019.2 |
| 20260905191732 | 16 | 185 | 0.0 | 3.2 | 0.00 | 0.03 | 0.00 | 70 | 1019.2 |
| 20260905191239 | 16 | 117 | 0.0 | 3.2 | 0.00 | 0.03 | 0.00 | 69 | 1019.3 |
| 20260905190726 | 16 | 77 | 0.0 | 3.2 | 0.00 | 0.03 | 0.00 | 70 | 1019.2 |
| 20260905190253 | 16 | 93 | 1.6 | 3.2 | 0.00 | 0.03 | 0.00 | 70 | 1019.3 |
| 20260905190221 | 16 | 93 | 1.6 | 3.2 | 0.00 | 0.03 | 0.00 | 70 | 1019.3 |
| 20260905185728 | 16 | 331 | 0.0 | 8.0 | 0.00 | 0.03 | 0.00 | 69 | 1019.2 |
| 20260905185236 | 16 | 103 | 3.2 | 6.4 | 0.00 | 0.03 | 0.00 | 71 | 1019.2 |
| 20260905184722 | 16 | 205 | 3.2 | 6.4 | 0.00 | 0.03 | 0.00 | 72 | 1019.3 |
| 20260905184229 | 16 | 80 | 1.6 | 4.8 | 0.00 | 0.03 | 0.00 | 72 | 1019.3 |
| 20260905183756 | 16 | 123 | 1.6 | 6.4 | 0.00 | 0.03 | 0.00 | 74 | 1019.4 |
| 20260905183252 | 16 | 163 | 0.0 | 6.4 | 0.00 | 0.03 | 0.00 | 73 | 1019.4 |
| 20260905183220 | 16 | 163 | 0.0 | 6.4 | 0.00 | 0.03 | 0.00 | 73 | 1019.4 |
| 20260905182731 | 15 | 85 | 1.6 | 6.4 | 0.00 | 0.03 | 0.00 | 73 | 1019.4 |
| 20260905182238 | 15 | 74 | 1.6 | 6.4 | 0.00 | 0.03 | 0.00 | 72 | 1019.5 |
| 20260905181724 | 15 | 109 | 4.8 | 6.4 | 0.00 | 0.03 | 0.00 | 72 | 1019.5 |